Baltimore Martin, MD

3:36 AM EDT on March 29, 2017 (GMT -0400)
Martin State

Weather History for KMTN - August, 2014

Change the Weather History Date:

Monday, August 25, 2014

  Actual Average Record
Temperature  
Mean Temperature 72 °F -  
Max Temperature 82 °F 81 °F 91 °F (1998)
Min Temperature 62 °F 66 °F 59 °F (2005)
Cooling Degree Days 7    
Growing Degree Days 22 (Base 50)    
Moisture  
Dew Point 63 °F    
Average Humidity 82    
Maximum Humidity 100    
Minimum Humidity 51    
Precipitation  
Precipitation 0.00 in - - ()
Sea Level Pressure  
Sea Level Pressure 30.17 in    
Wind  
Wind Speed 2 mph (NNE)    
Max Wind Speed 5 mph    
Max Gust Speed -    
Visibility 10 miles    
Events      
Averages and records for this station are not official NWS values.
T = Trace of Precipitation, MM = Missing Value Source: NWS Daily Summary

Daily Weather History Graph

Daily Weather History Graph

Search for Another Location

Airport or City:

Trip Planner

Search our weather history database for the weather conditions in past years. The results will help you decide how hot, cold, wet, or windy it might be!

Date:

Astronomy

Aug. 25, 2014 Rise Set
Actual Time 6:27 AM EDT 7:47 PM EDT
Civil Twilight 5:59 AM EDT 8:14 PM EDT
Nautical Twilight 5:26 AM EDT 8:48 PM EDT
Astronomical Twilight 4:51 AM EDT 9:23 PM EDT
Moon 6:30 AM EDT (8/25) 7:36 PM EDT (8/25)
Length of Visible Light 14h 15m
Length of Day
13h 19m
New Moon, 0% of the Moon is Illuminated
Aug 25
New Moon
Sep 2
First Quarter
Sep 8
Full
Sep 15
Last Quarter
Sep 24
New

Hourly Weather History & Observations

Time (EDT) Temp. Heat Index Dew Point Humidity Pressure Visibility Wind Dir Wind Speed Gust Speed Precip Events Conditions
12:06 AM 69.8 °F - 64.4 °F 83% 30.16 in 10.0 mi East 3.5 mph - N/A   Scattered Clouds
12:27 AM 69.8 °F - 64.4 °F 83% 30.16 in 10.0 mi Calm Calm - N/A   Scattered Clouds
1:06 AM 68.0 °F - 62.6 °F 83% 30.17 in 10.0 mi Calm Calm - N/A   Clear
1:27 AM 64.4 °F - 62.6 °F 94% 30.17 in 10.0 mi Calm Calm - N/A   Clear
1:48 AM 64.4 °F - 62.6 °F 94% 30.17 in 10.0 mi Calm Calm - N/A   Scattered Clouds
2:06 AM 64.4 °F - 62.6 °F 94% 30.18 in 10.0 mi Calm Calm - N/A   Mostly Cloudy
2:27 AM 64.4 °F - 62.6 °F 94% 30.18 in 10.0 mi Calm Calm - N/A   Scattered Clouds
2:48 AM 64.4 °F - 64.4 °F 100% 30.17 in 10.0 mi Calm Calm - N/A   Clear
3:06 AM 64.4 °F - 64.4 °F 100% 30.17 in 10.0 mi NNW 3.5 mph - N/A   Clear
3:27 AM 64.4 °F - 64.4 °F 100% 30.17 in 10.0 mi Calm Calm - N/A   Clear
4:06 AM 64.4 °F - 64.4 °F 100% 30.16 in 10.0 mi NNW 3.5 mph - N/A   Clear
4:48 AM 64.4 °F - 64.4 °F 100% 30.15 in 10.0 mi Calm Calm - N/A   Clear
5:06 AM 62.6 °F - 62.6 °F 100% 30.15 in 10.0 mi Calm Calm - N/A   Clear
5:27 AM 62.6 °F - 62.6 °F 100% 30.16 in 10.0 mi Calm Calm - N/A   Clear
5:30 AM 62.6 °F - 60.8 °F 94% 30.16 in 10.0 mi WNW 3.5 mph - N/A   Clear
5:50 AM 62.6 °F - 62.6 °F 100% 30.17 in 10.0 mi NNW 3.5 mph - N/A   Partly Cloudy
6:45 AM 64.4 °F - 62.6 °F 94% 30.18 in 10.0 mi Calm Calm - N/A   Partly Cloudy
7:45 AM 66.2 °F - 64.4 °F 94% 30.19 in 10.0 mi Calm Calm - N/A   Partly Cloudy
8:45 AM 69.8 °F - 64.4 °F 83% 30.20 in 10.0 mi NNE 3.5 mph - N/A   Partly Cloudy
9:45 AM 73.4 °F - 62.6 °F 69% 30.20 in 10.0 mi North 3.5 mph - N/A   Partly Cloudy
10:45 AM 75.2 °F - 62.6 °F 65% 30.20 in 10.0 mi NNE 4.6 mph - N/A   Partly Cloudy
11:45 AM 78.8 °F - 60.8 °F 54% 30.20 in 10.0 mi NNE 3.5 mph - N/A   Partly Cloudy
12:45 PM 78.8 °F - 59.0 °F 51% 30.20 in 10.0 mi ENE 3.5 mph - N/A   Partly Cloudy
1:45 PM 80.6 °F 81.5 °F 60.8 °F 51% 30.19 in 10.0 mi NE 4.6 mph - N/A   Partly Cloudy
2:45 PM 80.6 °F 81.5 °F 60.8 °F 51% 30.17 in 10.0 mi East 4.6 mph - N/A   Partly Cloudy
3:50 PM 80.6 °F 81.8 °F 62.6 °F 54% 30.16 in 10.0 mi ENE 4.6 mph - N/A   Scattered Clouds
5:55 PM 82.4 °F 83.4 °F 62.6 °F 51% 30.15 in 10.0 mi ESE 3.5 mph - N/A   Scattered Clouds
6:55 PM 78.8 °F - 62.6 °F 57% 30.15 in 10.0 mi Calm Calm - N/A   Scattered Clouds
7:50 PM 75.2 °F - 64.4 °F 69% 30.16 in 10.0 mi Calm Calm - N/A   Scattered Clouds
8:55 PM 71.6 °F - 68.0 °F 88% 30.15 in 10.0 mi Calm Calm - N/A   Scattered Clouds
9:45 PM 71.6 °F - 66.2 °F 83% 30.16 in 10.0 mi Calm Calm - N/A   Scattered Clouds
10:09 PM 69.8 °F - 66.2 °F 88% 30.16 in 10.0 mi Calm Calm - N/A   Clear
10:30 PM 69.8 °F - 64.4 °F 83% 30.16 in 10.0 mi Calm Calm - N/A   Clear
10:48 PM 68.0 °F - 64.4 °F 88% 30.15 in 10.0 mi Calm Calm - N/A   Clear
11:51 PM 68.0 °F - 64.4 °F 88% 30.15 in 10.0 mi Calm Calm - N/A   Clear